Creal Reef Observation History
Time Wind Speed Temp Pressure Rel. Hum Rain
25/01:30pm ESE 13-15 kts 25.1°c 1006.4 hPa n/a n/a
25/01:00pm SSE 9-11 kts 25.3°c 1006.6 hPa n/a n/a
25/12:30pm E 12-15 kts 25.9°c 1007.1 hPa n/a n/a
25/12:00pm E 16-18 kts 24.9°c 1007.5 hPa n/a n/a
25/11:30am SE 12-14 kts 27.1°c 1007.5 hPa n/a n/a
25/11:00am SE 10-11 kts 27.2°c 1007.9 hPa n/a n/a
25/10:30am SE 10-11 kts 27.2°c 1008.1 hPa n/a n/a
25/10:00am SE 9-11 kts 27.3°c 1008.3 hPa n/a n/a
25/09:30am ESE 9-11 kts 27.1°c 1008.2 hPa n/a n/a
25/09:00am SE 11-13 kts 27.0°c 1008.2 hPa n/a n/a
25/08:30am SE 13-15 kts 26.8°c 1008.0 hPa n/a n/a
25/08:00am SE 11-14 kts 26.9°c 1007.9 hPa n/a n/a
25/07:30am ESE 9-10 kts 26.9°c 1007.7 hPa n/a n/a
25/07:00am SE 9-11 kts 26.8°c 1007.6 hPa n/a n/a
25/06:30am ESE 9-10 kts 26.6°c 1007.4 hPa n/a n/a
25/06:00am ESE 9-10 kts 26.6°c 1007.1 hPa n/a n/a
25/05:30am ESE 11 kts 26.6°c 1007.0 hPa n/a n/a
25/05:00am ESE 11-13 kts 26.5°c 1006.9 hPa n/a n/a
25/04:30am ESE 13-14 kts 26.5°c 1006.7 hPa n/a n/a
25/04:00am ESE 13-16 kts 26.3°c 1006.5 hPa n/a n/a
25/03:30am ESE 13-15 kts 26.3°c 1006.5 hPa n/a n/a
25/03:00am ESE 12-14 kts 26.3°c 1006.8 hPa n/a n/a
25/02:30am ESE 15-17 kts 26.2°c 1006.8 hPa n/a n/a
25/02:00am ESE 15-17 kts 26.3°c 1007.0 hPa n/a n/a
25/01:30am SE 16-19 kts 26.3°c 1007.3 hPa n/a n/a
25/01:00am SE 15-17 kts 26.2°c 1007.5 hPa n/a n/a
25/12:30am SE 16-18 kts 26.2°c 1007.6 hPa n/a n/a
25/12:00am ESE 18-22 kts 26.2°c 1008.0 hPa n/a n/a
Time Wind Speed Temp Pressure Rel. Hum Rain
24/11:30pm SE 20-24 kts 26.2°c 1008.3 hPa n/a n/a
24/11:00pm ESE 20-22 kts 26.2°c 1008.7 hPa n/a n/a
24/10:30pm SE 17-19 kts 26.5°c 1008.9 hPa n/a n/a
24/10:00pm ESE 18-21 kts 26.4°c 1009.0 hPa n/a n/a
24/09:30pm SE 18-20 kts 26.4°c 1009.0 hPa n/a n/a
24/09:00pm SE 18-22 kts 25.2°c 1008.9 hPa n/a n/a
24/08:30pm SE 19-26 kts 25.6°c 1008.7 hPa n/a n/a
24/08:00pm SE 19-24 kts 26.5°c 1008.3 hPa n/a n/a
24/07:30pm SE 17-20 kts 27.1°c 1008.2 hPa n/a n/a
24/07:00pm SE 16-19 kts 27.2°c 1008.0 hPa n/a n/a
24/06:30pm SSE 14-16 kts 27.1°c 1007.8 hPa n/a n/a
24/06:00pm SSE 15-18 kts 27.0°c 1007.4 hPa n/a n/a
24/05:30pm SSE 14-18 kts 26.9°c 1007.2 hPa n/a n/a
24/05:00pm SSE 15-18 kts 26.8°c 1006.9 hPa n/a n/a
24/04:30pm SSE 14-17 kts 26.9°c 1006.9 hPa n/a n/a
24/04:00pm SSE 13-16 kts 27.0°c 1006.9 hPa n/a n/a
24/03:30pm SE 13-15 kts 27.2°c 1007.1 hPa n/a n/a
24/03:00pm SE 10-11 kts 27.0°c 1007.2 hPa n/a n/a
24/02:30pm SE 10-13 kts 27.0°c 1007.3 hPa n/a n/a
24/02:00pm ESE 10-12 kts 27.0°c 1007.5 hPa n/a n/a
24/01:30pm ESE 11-14 kts 27.0°c 1007.8 hPa n/a n/a
24/01:00pm SE 11-13 kts 26.9°c 1008.1 hPa n/a n/a
24/12:30pm SE 11-13 kts 27.0°c 1008.5 hPa n/a n/a
24/12:00pm SE 12-14 kts 26.9°c 1009.0 hPa n/a n/a
24/11:30am SE 11-14 kts 26.7°c 1009.3 hPa n/a n/a
24/11:00am SE 12-14 kts 26.7°c 1009.7 hPa n/a n/a
24/10:30am SE 11-13 kts 26.8°c 1010.0 hPa n/a n/a
24/10:00am SE 11-13 kts 26.8°c 1010.1 hPa n/a n/a
24/09:30am SE 12-14 kts 26.7°c 1010.3 hPa n/a n/a
24/09:00am SE 13-15 kts 26.9°c 1010.3 hPa n/a n/a
24/08:30am SSE 11-16 kts 26.7°c 1010.2 hPa n/a n/a
24/08:00am SE 11-14 kts 26.7°c 1010.2 hPa n/a n/a
24/07:30am SE 14-16 kts 26.8°c 1009.9 hPa n/a n/a
24/07:00am SSE 12-15 kts 26.2°c 1009.8 hPa n/a n/a
24/06:30am SE 12-16 kts 26.8°c 1009.5 hPa n/a n/a
24/06:00am SE 13-17 kts 26.5°c 1009.3 hPa n/a n/a
24/05:30am SE 15-17 kts 26.5°c 1008.9 hPa n/a n/a
24/05:00am SE 15-19 kts 26.5°c 1008.8 hPa n/a n/a
24/04:30am SE 16-19 kts 26.5°c 1008.7 hPa n/a n/a
24/04:00am SE 15-19 kts 26.5°c 1008.6 hPa n/a n/a
24/03:30am ESE 15-18 kts 26.6°c 1008.7 hPa n/a n/a
24/03:00am ESE 17-19 kts 26.6°c 1008.8 hPa n/a n/a
24/02:30am ESE 18-21 kts 26.8°c 1009.1 hPa n/a n/a
24/02:00am ESE 17-21 kts 26.6°c 1009.4 hPa n/a n/a
24/01:30am ESE 19-21 kts 26.5°c 1009.7 hPa n/a n/a
24/01:00am SE 19-22 kts 26.6°c 1010.0 hPa n/a n/a
24/12:30am ESE 16-19 kts 26.9°c 1010.3 hPa n/a n/a
24/12:00am ESE 16-19 kts 26.8°c 1010.5 hPa n/a n/a
Time Wind Speed Temp Pressure Rel. Hum Rain
23/11:30pm SE 17-21 kts 26.9°c 1010.8 hPa n/a n/a
23/11:00pm SE 19-21 kts 26.8°c 1011.0 hPa n/a n/a
23/10:30pm SE 19-22 kts 26.8°c 1011.3 hPa n/a n/a
23/10:00pm SE 19-23 kts 26.9°c 1011.2 hPa n/a n/a
23/09:30pm SE 19-22 kts 26.9°c 1010.8 hPa n/a n/a
23/09:00pm SE 21-23 kts 27.1°c 1010.7 hPa n/a n/a
23/08:30pm SE 21-25 kts 27.1°c 1010.5 hPa n/a n/a
23/08:00pm ESE 20-24 kts 27.1°c 1010.3 hPa n/a n/a
23/07:30pm ESE 21-24 kts 27.2°c 1010.0 hPa n/a n/a
23/07:00pm ESE 21-24 kts 27.2°c 1010.1 hPa n/a n/a
23/06:30pm SE 20-23 kts 27.3°c 1009.7 hPa n/a n/a
23/06:00pm ESE 20-24 kts 27.3°c 1009.5 hPa n/a n/a
23/05:30pm SE 18-21 kts 27.3°c 1009.3 hPa n/a n/a
23/05:00pm SE 15-17 kts 26.3°c 1009.2 hPa n/a n/a
23/04:30pm SE 23-30 kts 26.0°c 1008.9 hPa n/a n/a
23/04:00pm SSE 20-27 kts 25.8°c 1008.9 hPa n/a n/a
23/03:30pm SE 16-22 kts 26.1°c 1008.9 hPa n/a n/a
23/03:00pm ESE 16-20 kts 26.7°c 1009.1 hPa n/a n/a
23/02:30pm SE 17-20 kts 27.3°c 1009.3 hPa n/a n/a
23/02:00pm SE 18-21 kts 27.2°c 1009.3 hPa n/a n/a
23/01:30pm SE 17-21 kts 26.6°c 1009.4 hPa n/a n/a
23/01:00pm SSE 18-23 kts 26.4°c 1009.3 hPa n/a n/a
23/12:34pm SSE 16-27 kts 26.1°c 1009.2 hPa n/a n/a
23/12:30pm SE 15-17 kts 27.1°c 1009.3 hPa n/a n/a
23/12:00pm SE 14-16 kts 27.0°c 1009.5 hPa n/a n/a
23/11:30am SE 17-19 kts 26.9°c 1009.5 hPa n/a n/a
23/11:00am SE 16-18 kts 27.0°c 1010.0 hPa n/a n/a
23/10:30am SE 15-17 kts 27.1°c 1010.4 hPa n/a n/a
23/10:00am SE 16-19 kts 27.0°c 1010.1 hPa n/a n/a
23/09:30am SE 15-18 kts 27.1°c 1010.4 hPa n/a n/a
23/09:00am SSE 14-18 kts 26.9°c 1010.3 hPa n/a n/a
23/08:30am SE 16-19 kts 26.9°c 1010.1 hPa n/a n/a
23/08:00am SE 17-20 kts 26.9°c 1009.9 hPa n/a n/a
23/07:30am ESE 13-15 kts 26.8°c 1010.1 hPa n/a n/a
23/07:00am SE 13-15 kts 26.9°c 1009.7 hPa n/a n/a
23/06:30am SE 14-16 kts 26.8°c 1009.3 hPa n/a n/a
23/06:00am SE 14-16 kts 26.7°c 1009.2 hPa n/a n/a
23/05:30am SE 14-17 kts 26.7°c 1008.8 hPa n/a n/a
23/05:00am SE 14-17 kts 26.7°c 1008.8 hPa n/a n/a
23/04:30am SE 13-16 kts 26.6°c 1008.8 hPa n/a n/a
23/04:00am SE 15-17 kts 26.7°c 1008.3 hPa n/a n/a
23/03:30am ESE 16-18 kts 26.7°c 1008.1 hPa n/a n/a
23/03:00am SE 17-19 kts 26.6°c 1008.5 hPa n/a n/a
23/02:30am ESE 14-17 kts 26.7°c 1008.8 hPa n/a n/a
23/02:00am ESE 15-17 kts 26.6°c 1008.7 hPa n/a n/a
23/01:30am SE 15-18 kts 26.6°c 1009.0 hPa n/a n/a
23/01:00am ESE 16-19 kts 26.6°c 1009.5 hPa n/a n/a
23/12:30am ESE 16-18 kts 26.7°c 1009.7 hPa n/a n/a
23/12:00am ESE 15-18 kts 26.9°c 1010.1 hPa n/a n/a